Location: Katowice
(50.2611°N, 19.0242°E)
Time: 04:24:29
(UTC+02:00)

Tiros 1 - Pass Details

Date: 02 September 2019
Orbit: 630 x 664 km, 48.4° (Epoch: 17 October)

Event Time Altitude Azimuth Distance (km) Brightness Sun altitude
Rises 20:19:05 0° 214° (SW) 2,913 10.7 -8.7°
Reaches altitude 10° 20:21:42 10° 201° (SSW) 2,004 9.7 -9.1°
Maximum altitude 20:25:27 25° 147° (SSE) 1,275 8.2 -9.7°
Enters shadow 20:28:45 12° 96° (E) 1,867 8.9 -10.1°
